EW3861 Weather Reports


time (UTC)temp
C
wind
direction
speed
KPH
gust
KPH
rain 1hr
cm
rain 24hr
cm
rain mn
cm
humidity
%
barometer
mb
20260902024558 15 229 0.0 0.0 0.00 0.00 0.00 96 1017.8
20260902023055 15 229 0.0 0.0 0.00 0.00 0.00 96 1017.9
20260902021601 15 229 0.0 0.0 0.00 0.00 0.00 96 1017.7
20260902020058 15 229 0.0 0.0 0.00 0.00 0.00 95 1017.8
20260902014550 15 229 0.0 0.0 0.00 0.00 0.00 95 1017.9
20260902013048 15 229 0.0 0.0 0.00 0.00 0.00 96 1017.7
20260902011547 15 229 0.0 0.0 0.00 0.00 0.00 95 1017.5
20260902010045 15 229 0.0 0.0 0.00 0.00 0.00 96 1017.8
20260902004544 16 229 0.0 0.0 0.00 0.00 0.00 96 1017.5
20260902003044 16 229 0.0 0.0 0.00 0.00 0.00 95 1017.4
20260902001545 16 229 0.0 0.0 0.00 0.00 0.00 95 1017.4
20260902000042 16 229 0.0 0.0 0.00 0.00 0.00 95 1017.5
20260901234540 16 229 0.0 0.0 0.00 0.00 0.00 95 1017.3
20260901233039 16 229 0.0 0.0 0.00 0.00 0.00 95 1017.3
20260901231539 16 229 0.0 0.0 0.00 0.00 0.00 95 1017.2
20260901230054 16 229 0.0 0.0 0.00 0.00 0.00 95 1017.1
20260901224538 16 229 0.0 0.0 0.00 0.00 0.00 95 1017.1
20260901223047 16 229 0.0 0.0 0.00 0.00 0.00 95 1017.1
20260901221537 16 229 0.0 0.0 0.00 0.00 0.00 95 1017.1
20260901220056 16 229 0.0 0.0 0.00 0.00 0.00 95 1017.3
20260901214536 16 229 0.0 0.0 0.00 0.00 0.00 95 1017.3
20260901213044 16 229 0.0 0.0 0.00 0.00 0.00 94 1017.1
20260901211534 16 229 0.0 0.0 0.00 0.00 0.00 94 1017.2
20260901210034 16 229 0.0 0.0 0.00 0.00 0.00 94 1017.0
20260901204536 16 228 0.0 0.0 0.00 0.00 0.00 94 1016.8
20260901203037 16 148 0.0 0.0 0.00 0.00 0.00 93 1016.8
20260901201530 16 148 0.0 0.0 0.00 0.00 0.00 93 1016.7
20260901200029 16 207 0.0 0.0 0.00 0.00 0.00 93 1016.7
20260901194527 16 163 0.0 0.0 0.00 0.00 0.00 93 1016.7
20260901193031 16 163 0.0 0.0 0.00 0.00 0.00 93 1016.7
20260901191525 17 199 0.0 0.0 0.00 0.00 0.00 93 1016.7
20260901190023 17 199 0.0 0.0 0.00 0.00 0.00 93 1016.4
20260901184538 17 220 0.0 0.0 0.00 0.00 0.00 92 1016.4
20260901183021 17 217 0.0 0.0 0.00 0.00 0.00 92 1016.5
20260901181531 17 231 0.0 0.0 0.00 0.00 0.00 90 1016.5
20260901180018 17 232 0.0 0.0 0.00 0.00 0.00 88 1016.3
20260901174540 18 230 0.0 0.0 0.00 0.00 0.00 85 1015.8
20260901173019 18 228 0.0 0.0 0.00 0.00 0.00 83 1016.3
20260901171518 19 231 0.0 0.0 0.00 0.00 0.00 81 1016.1
20260901170014 19 226 0.0 0.0 0.00 0.00 0.00 84 1016.0
20260901164514 20 248 0.0 0.0 0.00 0.00 0.00 85 1016.1
20260901163013 20 229 0.0 0.0 0.00 0.00 0.00 85 1015.9
20260901161513 20 234 0.0 0.0 0.00 0.00 0.00 86 1015.8
20260901160021 20 234 0.0 0.0 0.00 0.00 0.00 88 1015.9
20260901154510 20 276 0.0 0.0 0.00 0.00 0.00 90 1015.8
20260901153013 20 264 0.0 0.0 0.00 0.00 0.00 92 1016.0
20260901151510 20 267 0.0 0.0 0.00 0.00 0.00 94 1016.1
20260901150012 20 268 0.0 0.0 0.00 0.00 0.00 95 1016.2
20260901144508 20 274 0.0 0.0 0.00 0.00 0.00 96 1016.4
20260901143003 19 277 0.0 0.0 0.00 0.00 0.00 96 1016.2
20260901141501 18 277 0.0 0.0 0.00 0.00 0.00 96 1016.5
20260901140059 18 232 0.0 0.0 0.00 0.00 0.00 96 1016.6
20260901134558 18 232 0.0 0.0 0.00 0.00 0.00 96 1016.6
20260901133057 18 232 0.0 0.0 0.00 0.00 0.00 96 1016.5
20260901131555 18 232 0.0 0.0 0.00 0.00 0.00 96 1016.5
20260901130054 18 232 0.0 0.0 0.00 0.00 0.00 95 1016.7
20260901124554 18 232 0.0 0.0 0.00 0.00 0.00 95 1016.6
20260901123111 18 232 0.0 0.0 0.00 0.00 0.00 95 1016.4
20260901121553 18 232 0.0 0.0 0.00 0.00 0.00 95 1016.5
20260901120058 18 232 0.0 0.0 0.00 0.00 0.00 95 1016.4
20260901114555 18 232 0.0 0.0 0.00 0.00 0.00 95 1016.3
20260901113054 18 232 0.0 0.0 0.00 0.00 0.00 95 1016.1
20260901111602 17 232 0.0 0.0 0.00 0.00 0.00 95 1016.2
20260901110048 17 232 0.0 0.0 0.00 0.00 0.00 94 1016.1
20260901104550 17 232 0.0 0.0 0.00 0.00 0.00 94 1016.1
20260901103047 17 232 0.0 0.0 0.00 0.00 0.00 94 1015.9
20260901101548 17 232 0.0 0.0 0.00 0.00 0.00 94 1015.7
20260901100049 17 232 0.0 0.0 0.00 0.00 0.00 94 1015.7
20260901094546 17 232 0.0 0.0 0.00 0.00 0.00 94 1015.8
20260901093045 17 232 0.0 0.0 0.00 0.00 0.00 94 1015.8
20260901091544 17 232 0.0 0.0 0.00 0.00 0.00 93 1015.7
20260901090042 17 232 0.0 0.0 0.00 0.00 0.00 93 1015.8
20260901084541 17 232 0.0 0.0 0.00 0.00 0.00 93 1015.9
20260901083040 17 232 0.0 0.0 0.00 0.00 0.00 93 1016.1
20260901081538 18 232 0.0 0.0 0.00 0.00 0.00 92 1016.5
20260901080038 18 232 0.0 0.0 0.00 0.00 0.00 93 1016.5
20260901074536 18 232 0.0 0.0 0.00 0.00 0.00 92 1016.4
20260901073035 18 232 0.0 0.0 0.00 0.00 0.00 93 1016.5
20260901071534 18 232 0.0 0.0 0.00 0.00 0.00 92 1016.6
20260901070032 18 232 0.0 0.0 0.00 0.00 0.00 92 1016.6
20260901064533 18 232 0.0 0.0 0.00 0.00 0.00 91 1016.7
20260901063036 18 232 0.0 0.0 0.00 0.00 0.00 91 1016.8
20260901061531 18 232 0.0 0.0 0.00 0.00 0.00 91 1016.8
20260901060029 18 232 0.0 0.0 0.00 0.00 0.00 91 1016.7
20260901054529 18 232 0.0 0.0 0.00 0.00 0.00 90 1016.7
20260901053026 18 232 0.0 0.0 0.00 0.00 0.00 90 1016.9
20260901051537 18 232 0.0 0.0 0.00 0.00 0.00 90 1017.0
20260901050025 18 232 0.0 0.0 0.00 0.00 0.00 89 1017.0
20260901044524 18 232 0.0 0.0 0.00 0.00 0.00 89 1017.1
20260901043031 18 232 0.0 0.0 0.00 0.00 0.00 89 1016.9
20260901041520 18 232 0.0 0.0 0.00 0.00 0.00 89 1017.1
20260901040022 18 232 0.0 0.0 0.00 0.00 0.00 89 1017.2
20260901034517 18 232 0.0 0.0 0.00 0.00 0.00 88 1017.3
20260901033018 18 232 0.0 0.0 0.00 0.00 0.00 88 1017.2
20260901031516 18 232 0.0 0.0 0.00 0.00 0.00 88 1017.2
20260901030013 18 232 0.0 0.0 0.00 0.00 0.00 88 1017.3